[ hide orbit diagram ]
For accurate long-term ephemerides, please instead use our Horizons system.This orbit viewer was implemented using two-body methods, and hence should not be used for determining accurate long-term trajectories (over several years or decades) or planetary encounter circumstances.
Orbital Elements at Epoch 2459200.5 (2020-Dec-17.0) TDB
Reference: JPL 11 (heliocentric ecliptic J2000)
Element | Value | Uncertainty (1-sigma) | Units |
e | .09488481485001657 | 4.6412e-08 | |
a | 2.373219195334981 | 1.729e-08 | au |
q | 2.148036731387116 | 1.086e-07 | au |
i | 4.820417356424134 | 5.0539e-06 | deg |
node | 247.5908366522789 | 6.8895e-05 | deg |
peri | 28.57221740426217 | 7.6251e-05 | deg |
M | 270.5921590137343 | 3.3711e-05 | deg |
tp | 2459532.148710001076 (2021-Nov-13.64871000) | 0.00012526 | TDB |
period | 1335.381039105149 3.66 | 1.4593e-05 3.995e-08 | d yr |
n | .2695859754315812 | 2.9461e-09 | deg/d |
Q | 2.598401659282846 | 1.893e-08 | au |
|
| | Orbit Determination Parameters
Additional Information
|
[ show covariance matrix ]
Physical Parameter Table
Parameter |
Symbol |
Value |
Units |
Sigma |
Reference |
Notes |
absolute magnitude |
H |
16.4 |
|
n/a |
MPO449863 |
|
|
160783 (2000 SB292) Discovered 2000-Sep-27 by LINEAR at Socorro |
Reference: 20070828/Numbers.arc | Last Updated: 2007-08-30 |
|
[ hide close-approach data ]
Close-Approach Data ...sorted by Date/Time (TDB)
|
Date/Time (TDB) |
Time Uncertainty (days_HH:MM) |
Body |
Nominal Distance (au) |
Minimum Distance (au) |
Maximum Distance (au) |
V-relative (km/s) |
V-infinity (km/s) |
JD (TDB) |
Time Uncertainty (minutes) |
Semi-major axis (km) |
Semi-minor axis (km) |
range-LOV angle (deg) |
N-sigma |
BP |
Orbit Ref. |
Reference |
Modified |
2093-Oct-14 23:32 |
< 00:01 |
Juno |
0.0206986907694469 |
0.0206796761070278 |
0.0207177367044955 |
7.49301022519879 |
7.49301014675713 |
2485800.480689825 |
0.540019277778346 |
1585.96155739317 |
60.6448018595661 |
-53.3167407388815 |
40950.3387313073 |
T |
11 |
CATAB v2.0f-lin.ifort 2020-Feb-24 13:25:14 |
2020-Feb-24 13:25 |
|
Alternate Designations
2000 SB292 = 2000 TG69 = 2004 UN8 |
|
|